Back to dashboard

Chongqing Weather News & Live Monitor

Live monitor data for Chongqing with Wunderground, NOAA, and AviationWeather sources, plus recent weather news headlines tied to this city.

Weather snapshot (America/New_York): 2026-05-08 23:09:31
News snapshot (America/New_York): 2026-05-08 22:38:49
Timezone: Asia/Shanghai
WU High Actual
N/A
WU High Today
20°C
WU High Forecast
25°C
NOAA Latest Temp
22.2°C
Aviation Latest Temp
20°C

NOAA24

Date/Time (L) Temp (C) Dew Point (C) Relative Humidity (%) Wind Direction Wind Speed (mph) Visibility (miles) Weather
May 1, 5:00 pm 22.2°C 12.2°C 53 N 16 6.21
May 1, 4:00 pm 22.2°C 12.2°C 53 N 13 6.21
May 1, 3:00 pm 22.8°C 12.2°C 50 NNW 11 6.21
May 1, 2:00 pm 22.8°C 12.2°C 50 N 11 6.21
May 1, 1:00 pm 22.8°C 12.2°C 50 NNE 13 6.21
May 1, 12:00 pm 22.8°C 12.2°C 50 N 9 6.21
May 1, 11:00 am 22.8°C 12.2°C 50 NE 7 6.21
May 1, 10:00 am 22.2°C 11.1°C 50 E 7 6.21
May 1, 9:00 am 22.2°C 11.1°C 50 NE 9 6.21
May 1, 8:00 am 21.1°C 10°C 49 NE 9 6.21
May 1, 7:00 am 21.1°C 10°C 49 ENE 9 6.21
May 1, 6:00 am 20°C 8.9°C 49 ENE 9 6.21
May 1, 5:00 am 21.1°C 8.9°C 46 E 7 6.21
May 1, 4:00 am 21.1°C 8.9°C 46 E 7 6.21
May 1, 3:00 am 21.1°C 8.9°C 46 E 7 6.21
May 1, 2:00 am 21.1°C 8.9°C 46 ESE 4 6.21
May 1, 1:00 am 22.2°C 8.9°C 43 E 7 6.21
May 1, 12:00 am 22.2°C 10°C 47 E 7 6.21
Apr 30, 11:00 pm 22.2°C 10°C 47 E 4 6.21
Apr 30, 10:00 pm 22.8°C 10°C 44 NE 9 6.21
Apr 30, 9:00 pm 22.2°C 11.1°C 50 N 9 6.21
Apr 30, 8:00 pm 22.8°C 10°C 44 NE 9 6.21
Apr 30, 7:00 pm 23.9°C 10°C 41 ENE 7 6.21
Apr 30, 6:00 pm 26.1°C 11.1°C 39 E 7 6.21
Apr 30, 5:00 pm 27.2°C 11.1°C 37 4 6.21
Apr 30, 4:00 pm 25°C 10°C 39 4 6.21
Apr 30, 3:00 pm 25°C 11.1°C 41 SSE 4 6.21
Apr 30, 2:00 pm 25°C 11.1°C 41 SE 7 6.21
Apr 30, 1:00 pm 23.9°C 10°C 41 S 7 6.21
Apr 30, 12:00 pm 22.8°C 10°C 44 ESE 11 6.21
Apr 30, 11:00 am 22.2°C 10°C 47 ESE 4 6.21
Apr 30, 10:00 am 20°C 11.1°C 56 ESE 7 6.21
Apr 30, 9:00 am 18.9°C 11.1°C 60 E 7 6.21
Apr 30, 8:00 am 17.2°C 12.2°C 72 NNE 4 6.21
Apr 30, 7:00 am 15°C 15°C 100 N 7 6.21
Apr 30, 6:00 am 12.8°C 12.8°C 100 N 7 6.21
Apr 30, 5:00 am 13.9°C 13.9°C 100 N 4 6.21
Apr 30, 4:00 am 13.9°C 13.9°C 100 N 4 6.21
Apr 30, 3:00 am 15°C 15°C 100 N 4 6.21
Apr 30, 2:00 am 13.9°C 12.8°C 94 N 4 6.21
Apr 30, 1:00 am 15°C 12.8°C 88 2 6.21
Apr 30, 12:00 am 16.1°C 12.8°C 82 N 0 6.21
Apr 29, 11:00 pm 16.1°C 12.8°C 82 N 4 6.21
Apr 29, 10:00 pm 17.2°C 12.8°C 77 2 6.21
Apr 29, 9:00 pm 17.2°C 12.8°C 77 2 6.21
Apr 29, 8:00 pm 17.2°C 12.8°C 77 ESE 4 6.21
Apr 29, 7:00 pm 17.8°C 12.8°C 73 S 4 6.21
Apr 29, 6:00 pm 18.9°C 12.8°C 68 S 4 6.21

AviationWeather

Time Temp (C) Dew (C) RH Wind Weather Clouds Vis
2026-05-09 03:00:00Z 20°C 13°C VRB SCT2300 6+
2026-05-09 02:00:00Z 19°C 12°C VRB FEW4000 6+
2026-05-09 01:00:00Z 17°C 13°C VRB 6+
2026-05-09 00:00:00Z 17°C 13°C 110 SCT4600 6+
2026-05-08 23:00:00Z 16°C 12°C 100 SCT4600 6+
2026-05-08 22:00:00Z 16°C 12°C 90 SCT4600 6+
2026-05-08 21:00:00Z 16°C 12°C 30 OVC4300 6+
2026-05-08 20:00:00Z 16°C 12°C 10 OVC3600 6+
2026-05-08 19:00:00Z 16°C 13°C 10 OVC3600 6+
2026-05-08 18:00:00Z 17°C 13°C 10 OVC3600 6+
2026-05-08 17:00:00Z 17°C 12°C 20 OVC3600 6+
2026-05-08 16:00:00Z 17°C 12°C 360 OVC3600 6+
2026-05-08 15:00:00Z 17°C 13°C 360 OVC3600 6+
2026-05-08 14:00:00Z 17°C 13°C 10 OVC3600 6+
2026-05-08 13:00:00Z 17°C 13°C 10 OVC3600 6+
2026-05-08 12:00:00Z 17°C 13°C 10 OVC3600 6+
2026-05-08 11:00:00Z 18°C 11°C 40 OVC3600 6+
2026-05-08 10:00:00Z 17°C 13°C 10 OVC3600 6+
2026-05-08 09:00:00Z 18°C 13°C 40 OVC4000 6+
2026-05-08 08:00:00Z 18°C 13°C 40 OVC4000 6+
2026-05-08 07:00:00Z 17°C 14°C 20 OVC4600 6+
2026-05-08 06:00:00Z 17°C 13°C 20 OVC5000 6+
2026-05-08 05:00:00Z 17°C 15°C 10 OVC5000 6+
2026-05-08 04:00:00Z 16°C 14°C 10 -SHRA 6+

Latest Chongqing Weather News